Simultaneous Nadir Overpasses (SNOs) Predictions

Prediction of SNOs between METOP-A and NOAA-19 Satellite Orbit:

Table of predicted SNOs for the next 14.0 days since TLE Epoch: 8/7/2020
Index Date (METOP-A) Time (METOP-A) Lat,Lon (METOP-A) SZA (METOP-A ) Date (NOAA-19) Time (NOAA-19) Lat,Lon (NOAA-19) SZA (NOAA-19 ) Distance(km) Time Diff (sec)
1 08/18/2020 17:39:55 80.65, -71.39 68.06 08/18/2020 17:38:58 80.64, -71.39 68.05 0.35 57
2 08/18/2020 18:30:36 -80.63, 95.73 111.95 08/18/2020 18:29:57 -80.65, 95.75 111.94 1.98 39
3 08/18/2020 19:21:16 80.64, -96.88 68.07 08/18/2020 19:20:57 80.64, -96.70 68.08 3.19 19
4 08/18/2020 20:11:57 -80.64, 70.57 111.91 08/18/2020 20:11:57 -80.64, 70.44 111.92 2.30 0
5 08/18/2020 21:02:38 80.62,-122.37 68.08 08/18/2020 21:02:58 80.64,-122.36 68.10 2.06 20
6 08/18/2020 21:53:19 -80.63, 45.08 111.90 08/18/2020 21:53:57 -80.64, 45.13 111.89 0.94 38
7 08/18/2020 22:43:59 80.64,-147.52 68.12 08/18/2020 22:44:58 80.64,-147.67 68.12 2.62 59
